Theta_e
291 286 284 284 287 288 288 287 288 288 287 285 284 283 284 284 286 289 290 292 287 287 289 289 289 290 291 293 295 297 297 297 295 295 295 293 292 293 293 294 295 295 295 298 296 295 293 293 293 294 297 301 304 307 309 312 314 316 317 319 320 321 323 321 321 320 320 317 317 318 317 316 318 317 317 316 317 317 317 316 316 314 314 313 311 308
291 285 285 287 288 289 289 287 286 286 285 286 284 283 285 284 284 290 290 292 291 286 288 290 288 289 291 294 295 297 296 295 295 295 296 296 296 296 295 295 295 296 297 295 296 296 291 291 292 294 297 300 302 305 307 310 313 315 316 318 320 322 322 322 321 320 320 320 319 318 317 317 317 316 315 315 316 316 316 315 315 314 314 313 312 308
283 284 289 289 288 287 286 286 285 286 286 283 284 284 281 284 286 289 289 289 288 285 288 288 284 288 292 294 295 295 295 296 297 296 296 296 297 297 297 294 295 296 297 298 298 295 290 291 291 293 296 300 303 304 306 309 311 313 315 318 319 321 321 321 321 321 320 320 320 320 319 319 317 318 317 317 316 316 316 315 315 315 314 312 311 309
284 283 288 288 287 288 285 287 285 285 284 282 282 280 283 287 283 283 290 291 290 285 287 287 285 289 292 294 294 296 297 297 298 298 297 297 296 296 297 296 296 297 298 298 299 299 291 289 290 291 294 298 301 303 305 307 309 312 314 317 319 320 321 321 321 318 321 321 321 321 320 320 319 316 316 316 316 315 315 314 314 314 313 312 311 309
287 291 290 287 286 286 286 284 284 285 286 283 284 284 284 284 286 285 288 287 287 290 291 286 283 284 290 290 293 297 298 297 298 297 297 294 291 294 294 294 295 295 296 297 298 298 295 292 291 292 294 296 300 302 304 306 308 310 312 316 318 320 320 321 320 319 320 319 319 319 319 319 317 314 314 314 313 313 312 313 313 313 313 312 310 309
286 288 287 287 284 285 287 286 287 286 284 283 284 286 287 287 286 286 286 284 283 285 290 285 280 281 289 290 292 294 296 296 297 296 297 298 297 293 292 293 295 295 294 295 297 296 297 296 293 292 292 293 297 301 303 306 308 309 311 314 317 319 320 320 320 320 319 317 317 316 314 311 312 310 310 310 309 311 311 311 313 313 313 312 311 309
287 285 288 288 287 285 285 284 286 287 283 281 285 285 285 285 283 282 283 282 278 280 288 288 282 277 285 288 291 293 293 294 296 296 296 297 297 296 293 293 294 294 295 296 296 297 296 297 295 294 292 293 295 298 303 305 306 308 310 312 316 318 319 320 320 320 318 318 317 316 316 315 313 311 313 315 315 313 313 312 311 312 312 312 311 309
286 287 287 285 286 286 284 283 285 285 284 282 284 285 285 284 284 285 284 283 283 286 288 288 285 280 280 286 291 292 291 292 293 294 295 296 296 295 293 293 293 294 294 295 295 295 295 295 295 294 294 293 295 298 299 302 305 306 308 310 313 316 317 320 320 319 318 318 317 316 316 315 314 314 313 315 315 315 312 312 311 311 311 311 311 310
287 287 286 285 285 283 282 286 287 285 285 286 287 286 285 286 285 284 283 284 284 282 281 285 284 276 280 286 291 291 288 290 291 292 293 295 294 293 293 293 293 294 294 294 294 295 294 294 295 296 295 295 295 296 297 300 304 306 307 309 311 315 317 318 319 319 318 317 317 317 316 314 315 315 315 314 314 313 311 311 311 310 310 310 310 310
287 287 286 287 284 283 285 284 283 285 284 284 284 283 284 284 283 283 284 283 282 278 277 282 283 279 279 286 287 288 287 288 290 292 293 292 291 292 292 293 293 293 293 293 293 293 294 295 296 297 296 295 295 295 297 299 302 305 307 307 308 312 316 317 318 318 318 318 316 317 316 315 314 314 314 314 313 313 311 311 310 310 309 309 309 309
286 289 290 287 285 284 285 285 285 285 288 285 285 284 283 283 284 284 283 280 273 275 279 283 284 282 277 283 285 285 287 290 290 291 292 291 292 293 293 292 292 291 292 291 291 291 292 293 295 295 295 296 296 294 295 297 300 303 306 307 307 310 314 316 317 317 317 317 317 317 316 315 314 314 313 312 311 312 310 310 309 309 309 309 309 308
286 286 288 285 288 287 286 287 286 284 283 284 283 281 282 281 281 277 276 275 272 273 281 283 282 282 276 279 287 287 290 290 291 289 288 290 291 292 291 291 290 290 289 289 290 290 291 292 293 294 294 295 295 295 294 296 299 301 305 307 308 309 312 315 316 316 316 316 316 316 316 316 315 314 312 311 310 311 310 311 309 310 309 308 308 308
283 283 284 286 289 290 287 285 287 289 285 284 282 282 277 275 276 266 272 270 272 275 278 281 282 278 280 285 287 288 290 291 290 290 290 290 291 290 289 289 289 289 289 289 289 290 291 291 292 293 294 294 294 295 295 296 298 300 303 306 307 308 311 313 315 315 315 315 315 315 316 316 315 314 313 311 311 311 311 311 310 309 307 307 307 307
280 282 283 285 287 287 288 283 282 282 282 284 282 279 275 273 272 272 275 275 276 277 281 282 283 278 282 285 288 288 289 288 290 290 291 291 290 288 287 287 288 289 289 290 291 291 291 292 292 293 293 294 294 295 296 295 297 299 302 305 307 308 310 312 314 315 315 315 315 315 315 315 315 314 313 312 312 311 312 312 311 309 308 307 307 306
276 275 282 286 283 288 287 284 284 282 283 283 284 282 278 275 274 269 271 270 271 275 279 283 277 274 276 279 288 287 287 286 288 290 290 290 287 286 287 287 288 289 290 291 291 291 291 292 292 293 293 293 294 295 296 296 296 298 300 302 305 307 309 311 312 314 314 314 315 314 315 315 315 314 312 312 312 312 311 312 311 310 310 308 308 307
278 279 283 286 286 286 284 285 285 284 283 284 280 283 278 274 279 273 276 275 274 274 274 277 278 281 281 288 288 286 285 285 286 288 288 286 286 286 286 287 288 289 290 291 291 291 292 293 293 293 293 293 295 296 297 296 296 298 300 301 303 306 308 310 311 312 313 314 314 314 314 314 314 313 313 311 310 311 312 311 312 311 310 309 308 308
278 278 283 287 289 284 284 285 285 286 275 279 283 276 278 283 280 277 278 281 280 277 273 281 277 280 286 286 286 282 283 283 284 285 285 284 285 285 285 286 288 289 289 289 290 290 292 293 294 294 293 293 294 295 296 298 298 298 299 300 301 304 307 309 310 311 312 313 313 313 313 314 313 313 312 312 310 310 311 311 310 310 310 310 309 307
277 278 286 284 284 284 284 285 285 284 285 282 275 279 283 286 284 277 270 273 272 268 271 277 274 275 275 271 282 280 279 281 282 283 284 284 285 285 285 287 288 287 287 288 289 290 293 294 294 294 295 295 296 296 296 298 299 299 300 300 300 302 304 307 309 310 311 311 311 311 312 312 313 313 312 313 311 311 309 309 309 308 308 308 308 308
283 276 282 284 284 283 284 284 281 283 284 281 280 283 277 270 269 275 273 265 266 265 269 273 276 276 278 277 278 277 278 280 282 282 282 283 284 284 285 286 286 286 286 286 287 288 293 293 293 293 293 294 296 296 296 297 299 299 300 301 301 301 303 305 308 309 310 311 311 311 311 311 311 312 312 312 311 311 309 308 308 307 308 307 307 306
282 277 278 285 280 282 282 279 272 276 281 283 280 278 280 276 272 268 270 273 273 268 269 268 274 271 277 277 275 277 279 280 280 280 281 282 283 284 284 284 285 285 285 285 286 289 292 293 292 292 292 293 294 295 296 297 298 298 300 300 301 302 302 304 306 307 307 309 309 309 309 310 310 310 311 311 309 309 309 309 309 308 307 307 305 306
276 282 273 280 282 280 274 279 275 276 274 275 275 274 275 274 278 278 275 273 268 266 265 265 262 268 273 279 278 279 280 280 280 280 282 283 284 284 284 284 284 284 285 285 286 289 292 292 292 292 292 292 293 295 296 297 297 298 298 299 300 300 301 302 304 306 306 307 307 306 307 307 308 308 309 309 309 308 308 308 308 309 308 307 306 306
269 275 273 276 275 274 276 280 278 278 277 275 274 273 275 272 268 265 263 273 271 265 263 262 261 269 277 281 281 281 281 280 282 282 282 283 283 283 284 284 284 284 284 285 286 289 291 291 291 292 291 291 292 294 295 297 297 297 298 299 300 301 301 301 303 305 305 305 306 306 306 306 307 307 308 308 309 308 308 308 307 308 307 305 306 305
279 276 275 271 273 275 278 280 280 279 278 277 276 273 276 273 273 265 263 265 269 270 272 269 266 267 278 281 281 280 281 282 282 283 282 283 283 283 284 284 285 284 284 285 286 289 291 290 291 291 289 290 291 293 295 296 297 297 298 299 299 300 301 301 303 304 305 304 304 305 306 306 306 306 306 307 307 307 307 307 306 305 305 305 304 302
284 271 264 274 277 277 277 278 278 278 278 276 275 277 274 272 272 271 270 271 268 268 265 265 264 270 277 278 279 281 282 283 284 283 281 283 283 284 284 284 284 284 284 285 287 290 291 289 290 290 289 289 290 292 294 296 297 297 297 298 299 299 301 301 301 301 303 304 304 304 304 305 306 306 306 305 306 306 306 306 305 304 303 303 303 301
271 273 273 267 267 270 273 274 274 276 277 273 273 274 276 276 275 274 274 273 267 267 269 266 261 266 276 280 281 281 282 282 281 282 282 282 283 284 284 284 283 283 283 284 286 289 290 288 289 289 289 289 289 291 294 295 296 296 296 298 299 300 300 300 300 300 302 302 302 303 303 304 305 305 305 305 306 305 305 304 304 302 302 302 300 299
275 274 269 262 262 260 261 262 264 268 271 274 275 275 276 275 274 272 266 267 265 269 271 267 265 272 277 279 280 280 280 280 280 282 283 283 282 282 282 283 282 282 283 283 286 288 288 288 289 289 289 289 289 291 293 295 295 295 296 296 298 300 300 300 300 301 302 302 302 302 302 303 304 304 304 304 304 304 304 304 303 300 299 300 297 296
270 275 275 272 268 266 268 271 275 276 273 270 272 274 274 275 275 273 272 268 266 269 268 270 271 272 274 276 277 278 278 277 279 281 282 282 283 282 282 282 281 282 282 283 285 287 288 287 288 289 288 289 289 290 292 294 294 295 294 295 296 298 300 301 301 301 302 302 301 302 302 302 303 304 303 303 303 303 303 302 301 298 298 296 297 295
273 272 274 273 273 273 274 273 275 276 272 273 272 272 274 274 273 271 269 267 272 269 263 272 274 271 272 274 275 276 277 278 280 281 282 282 282 282 281 281 283 281 282 283 284 286 286 287 288 288 288 288 289 290 291 293 294 294 293 293 295 297 298 299 300 301 301 301 301 302 302 302 302 302 302 302 302 301 301 301 298 297 297 294 294 295
274 269 273 274 272 274 275 275 275 275 274 274 274 273 272 274 272 269 270 272 272 268 266 272 273 270 271 273 275 276 277 278 280 280 281 283 282 282 280 280 280 280 281 281 283 285 286 287 287 288 288 288 288 289 290 292 294 293 293 293 294 296 297 297 297 299 300 300 301 302 302 301 301 301 300 299 299 297 296 296 294 294 293 292 293 293
273 269 274 274 272 274 274 274 275 274 273 274 273 273 274 273 272 273 272 273 273 271 272 271 271 271 273 274 276 278 280 280 280 281 281 281 281 281 279 279 280 280 281 281 282 284 286 287 287 287 287 287 287 288 289 291 293 293 292 292 294 295 296 295 295 296 298 299 300 300 300 300 299 299 297 295 295 295 294 293 292 292 291 291 291 291
276 266 278 274 271 271 274 275 275 274 273 271 273 273 273 273 273 274 273 273 272 271 272 271 270 270 275 277 278 279 280 280 280 279 280 280 281 280 279 280 280 280 281 281 282 284 286 286 286 286 286 286 287 287 289 291 292 292 292 292 294 295 295 294 294 294 296 298 300 299 299 298 297 296 294 294 294 293 291 291 291 291 290 290 290 290
277 269 275 273 268 268 273 273 273 274 273 272 271 272 272 272 270 271 270 272 270 269 270 270 268 269 275 278 278 279 279 279 278 279 279 280 280 280 279 279 280 280 281 281 282 284 285 286 285 286 286 286 287 287 289 290 291 291 291 293 294 294 293 293 293 293 294 297 299 298 297 297 295 294 293 292 292 291 290 290 290 290 290 290 290 290
274 271 267 267 266 268 273 273 272 272 270 268 269 272 273 272 273 273 273 274 273 273 269 267 268 274 275 277 276 277 278 278 278 279 279 280 280 280 279 279 280 281 281 282 283 284 285 285 285 285 286 286 287 287 289 290 290 290 292 292 294 293 292 292 292 292 293 295 296 296 296 295 294 293 293 292 292 291 289 289 289 289 289 289 290 289
275 273 268 272 267 268 271 271 272 268 261 264 274 275 273 271 271 270 270 272 273 274 272 274 274 276 276 276 276 276 277 278 278 280 281 280 279 279 280 280 281 281 281 282 283 284 284 285 285 286 286 286 287 287 289 290 290 291 292 292 292 291 291 291 291 291 292 292 293 294 294 294 293 293 292 292 291 290 289 289 289 289 290 289 289 289
274 272 268 270 266 265 269 269 265 262 264 273 275 276 276 274 274 272 272 273 274 275 274 274 274 275 276 277 277 278 278 279 280 280 280 281 281 280 280 281 281 281 282 282 282 283 284 284 285 285 286 286 287 288 289 290 291 291 291 291 291 290 290 290 290 290 291 292 292 293 293 293 293 293 292 291 291 290 290 289 289 289 289 290 289 289
270 270 267 265 268 267 268 264 259 260 271 274 275 276 277 276 275 273 271 274 275 275 274 273 275 276 277 277 278 278 278 279 280 280 280 281 281 281 281 281 282 282 282 282 282 283 284 284 285 285 285 287 287 287 288 289 290 289 290 291 290 289 289 289 289 290 291 291 292 292 292 292 292 292 291 290 290 290 290 289 289 289 289 290 289 289
276 272 269 265 269 264 262 264 264 270 270 271 271 272 273 271 271 270 266 270 274 275 275 275 275 276 277 277 278 278 279 279 277 278 280 281 282 283 282 282 283 283 283 283 283 283 284 285 285 286 286 286 286 287 287 288 289 289 289 289 290 289 289 289 289 290 290 290 291 292 292 291 291 291 291 290 290 289 289 289 289 290 290 289 289 289
276 270 269 268 262 269 265 262 263 263 260 266 272 275 277 276 275 275 272 269 275 276 277 276 275 275 276 277 278 278 279 276 274 276 280 282 283 283 283 283 284 284 283 283 284 284 284 285 285 286 286 286 286 286 287 288 288 288 288 289 289 289 288 288 289 290 290 290 291 292 292 291 291 290 290 290 290 289 290 290 290 290 289 289 289 288
274 274 273 268 263 262 261 262 262 260 263 272 273 275 276 277 276 275 270 266 274 276 276 276 276 276 277 277 277 278 276 272 273 277 281 282 283 283 283 283 283 283 284 284 284 284 284 285 285 285 285 285 285 286 287 287 287 287 287 288 289 289 288 288 288 289 290 291 291 291 292 291 290 290 290 290 290 290 289 289 290 290 289 289 289 289
269 267 264 261 260 260 262 262 261 260 262 269 273 275 277 277 277 273 262 264 275 277 278 277 276 277 277 278 278 277 275 272 274 278 282 282 282 282 282 281 282 282 282 284 284 284 284 284 284 284 284 284 285 286 286 287 287 287 287 288 289 288 288 288 289 290 291 291 291 291 291 291 290 290 290 290 289 290 290 290 289 289 289 289 289 289
263 259 261 265 264 266 268 265 267 267 273 275 275 276 276 277 275 266 261 269 276 278 278 278 278 278 279 278 279 276 278 279 278 279 278 277 276 277 278 279 280 281 281 281 282 284 283 283 284 284 284 285 285 286 286 286 286 286 286 287 288 288 288 289 289 290 290 290 290 290 290 290 290 290 290 290 290 290 289 290 289 289 288 288 288 288
265 267 268 269 266 265 265 264 265 268 275 277 277 276 278 274 265 264 273 279 278 278 279 279 278 279 279 275 270 268 269 270 270 271 271 271 271 273 274 275 275 276 277 278 279 278 277 279 280 281 283 284 285 286 286 286 285 285 285 286 287 288 289 289 289 290 290 290 289 289 289 289 289 290 290 290 290 289 289 289 289 289 288 289 288 287
269 265 265 267 269 269 269 266 264 260 271 277 276 276 278 269 270 277 278 279 280 279 279 279 278 276 271 268 269 268 268 268 268 269 270 270 270 270 270 270 270 270 271 271 272 274 276 276 277 279 280 283 285 285 285 284 283 284 285 286 288 289 289 289 289 289 289 289 289 288 288 289 289 289 290 289 289 289 289 289 288 288 288 288 287 287
274 265 267 270 274 266 265 264 263 270 275 278 276 271 275 277 279 279 278 277 280 280 277 273 271 270 269 268 267 266 266 266 266 267 267 267 267 267 268 268 269 269 270 271 272 273 275 274 274 274 276 278 279 281 281 282 282 284 285 286 289 289 288 288 289 289 288 288 288 288 288 288 288 289 290 289 289 289 288 288 288 288 288 288 287 287
276 272 272 268 274 270 266 269 274 277 277 278 278 277 278 279 280 280 280 278 277 276 274 269 268 268 268 266 265 265 264 265 265 266 265 265 266 266 266 267 268 268 269 270 270 272 273 272 272 273 275 277 279 281 282 283 284 284 285 287 289 288 288 288 288 288 288 288 288 288 288 288 288 289 289 289 289 288 288 288 287 287 287 287 287 287
276 277 277 275 273 277 278 278 279 278 278 278 279 279 278 279 281 280 278 274 274 272 270 267 267 266 266 266 264 264 264 264 264 264 264 264 265 265 266 267 267 268 269 269 270 271 272 272 272 272 273 275 277 279 282 283 284 284 286 288 288 288 288 288 288 288 288 288 288 288 288 288 288 288 289 289 289 289 289 288 287 287 287 287 287 286
277 276 275 273 275 272 268 277 276 276 277 278 278 279 280 280 279 277 273 273 271 269 268 267 266 266 265 265 264 263 263 263 263 263 264 264 264 265 265 266 267 267 268 268 270 271 271 271 271 272 273 276 280 282 283 285 286 286 287 287 288 288 288 288 288 288 288 287 288 288 288 288 288 288 288 288 289 289 289 288 288 287 287 287 286 286
271 278 274 274 274 272 271 275 276 278 278 278 278 277 277 278 276 274 273 271 269 268 267 266 266 265 265 263 263 262 262 263 262 262 263 263 264 264 265 266 266 267 268 269 270 271 271 271 271 272 274 276 280 282 284 285 286 286 287 287 287 287 287 287 287 288 288 288 288 288 288 288 287 288 288 288 288 288 288 288 288 288 287 287 287 286
276 277 271 274 272 274 276 277 277 276 276 277 277 278 278 274 271 271 270 268 267 265 265 265 265 264 264 263 263 262 261 261 262 262 262 263 264 264 265 266 267 267 268 269 270 271 271 271 271 272 273 276 280 283 285 286 286 286 287 287 288 287 287 287 287 287 287 288 288 288 288 288 288 288 288 288 288 289 289 288 287 288 288 288 288 288
276 273 276 274 270 270 271 273 273 268 269 273 275 277 274 271 271 269 267 265 265 264 264 263 263 263 263 263 262 262 260 261 262 263 263 264 264 265 266 266 267 268 268 270 271 271 271 272 272 273 274 278 283 284 285 286 286 287 287 287 288 288 287 287 287 287 287 288 288 288 288 288 288 288 288 288 287 287 288 288 289 289 288 287 288 289
275 275 274 272 270 270 275 276 271 271 271 274 276 275 271 270 269 266 264 264 264 264 264 262 261 261 261 262 262 262 261 261 262 263 263 264 265 266 268 268 268 268 269 270 271 271 271 272 274 278 281 283 284 284 285 285 285 286 287 287 287 287 287 287 287 287 287 287 287 287 288 288 288 288 288 287 287 287 287 286 287 289 289 289 288 288
Wind_Speed
0 3 3 6 7 7 8 5 6 2 0 4 5 5 12 10 14 15 12 11 1 6 14 11 12 17 21 24 28 27 23 20 15 17 17 10 12 12 13 14 15 15 17 13 7 7 6 9 11 11 10 10 9 10 11 13 15 16 17 16 18 15 16 15 14 14 13 13 12 12 14 16 13 12 11 10 10 11 11 12 11 10 9 10 9 8
3 4 6 7 8 7 8 6 3 1 3 4 5 7 12 6 12 16 14 14 7 2 13 12 11 17 20 25 27 24 25 24 19 19 20 16 14 11 13 15 14 15 10 8 10 8 5 5 7 7 8 8 11 13 14 17 19 18 19 19 17 14 14 16 17 14 14 15 14 14 13 12 12 12 13 12 11 11 11 13 12 11 10 11 11 10
3 5 10 7 4 2 4 5 3 3 2 3 4 8 7 11 8 14 11 7 4 2 13 10 5 15 24 29 26 24 23 20 17 14 17 16 18 14 13 8 11 13 16 13 11 7 5 4 5 6 8 10 15 15 17 18 17 17 17 17 16 15 14 14 15 15 14 14 15 14 12 13 10 11 11 12 12 11 11 12 12 12 11 10 10 11
8 4 10 4 2 0 3 1 5 3 4 3 4 4 10 9 6 10 11 15 9 2 11 8 9 15 23 24 23 22 20 16 17 18 19 14 12 13 14 8 9 14 16 18 18 15 9 4 4 4 6 10 9 10 12 13 17 16 16 17 17 16 16 16 17 16 16 15 15 16 13 13 12 11 11 12 12 13 14 13 12 11 11 11 11 12
10 13 4 1 1 4 3 2 5 7 9 3 5 7 8 9 9 7 12 7 11 16 16 5 4 6 16 21 18 20 20 17 20 18 18 10 5 8 8 10 8 12 13 14 18 17 17 12 8 7 8 5 8 12 13 15 16 15 20 20 21 19 21 18 18 18 15 13 12 13 12 11 10 7 10 10 12 12 12 13 13 12 12 12 11 11
11 9 0 0 3 1 2 8 7 4 8 4 6 11 11 11 11 10 10 9 7 14 13 3 8 7 14 20 21 18 18 21 21 22 25 27 11 3 7 9 10 8 6 9 12 15 16 16 13 9 6 8 11 11 14 16 18 17 17 19 20 17 16 17 18 19 15 13 14 15 12 13 13 14 13 16 18 17 14 15 13 14 14 14 12 11
5 2 3 1 2 3 1 3 6 1 6 3 8 3 6 7 5 6 12 4 6 11 16 3 13 13 5 21 24 20 22 24 22 22 24 22 18 12 8 10 12 13 14 12 11 14 15 16 15 14 9 11 11 14 16 13 15 17 16 17 19 17 15 16 18 20 17 15 13 17 19 17 17 17 15 14 12 13 12 11 13 13 12 13 13 13
1 6 6 4 3 3 4 6 2 3 1 6 4 1 5 6 7 9 9 6 10 7 16 14 10 13 13 18 20 18 21 21 19 20 21 18 17 15 13 13 11 12 11 12 10 9 9 10 11 13 12 10 13 17 13 11 12 15 17 17 17 16 15 15 16 20 20 19 17 16 17 17 16 17 16 15 14 13 12 13 14 13 12 13 12 13
1 7 5 4 1 3 5 6 2 3 2 7 8 6 8 9 8 8 8 12 10 9 18 15 2 3 7 17 8 13 14 18 17 17 16 14 13 14 14 13 13 13 12 11 13 13 10 9 10 11 12 11 11 13 13 16 16 16 16 16 15 17 17 16 19 17 18 18 19 18 16 16 15 16 15 12 11 12 12 15 14 13 13 13 13 13
2 2 3 1 3 8 6 2 2 5 2 5 5 4 6 5 4 7 12 12 9 4 19 16 5 10 14 13 12 6 11 13 13 14 10 13 13 14 15 16 14 12 12 12 13 14 13 11 11 12 13 12 10 10 11 13 12 12 12 14 15 18 16 16 18 18 19 18 17 18 18 19 17 15 12 13 13 13 13 15 15 14 13 13 12 12
5 4 5 1 6 3 1 2 3 3 6 5 5 5 4 6 9 8 9 5 3 8 18 15 10 8 19 11 14 7 11 10 6 8 10 12 13 15 13 14 15 14 12 13 15 15 16 14 12 12 15 16 12 7 7 10 12 12 12 15 17 19 16 17 19 21 22 19 17 17 19 20 19 18 17 15 15 14 14 15 15 15 14 13 13 12
5 4 2 2 4 3 3 8 1 3 3 3 4 5 8 7 5 3 5 2 4 12 11 8 7 6 15 15 6 4 9 14 19 11 10 9 11 11 13 13 15 15 16 17 16 17 18 19 20 18 17 17 17 13 5 9 12 12 13 14 17 17 18 18 18 20 21 20 20 17 18 19 19 18 16 19 19 18 18 17 15 13 13 13 13 13
7 2 3 4 2 11 6 9 12 14 10 5 4 6 6 7 4 5 2 5 6 14 10 8 8 9 14 14 17 17 22 12 8 9 8 5 7 13 14 18 16 15 18 20 19 18 18 16 18 20 19 17 17 17 12 9 11 11 11 14 17 19 20 19 20 21 22 21 20 19 18 18 17 18 17 18 18 17 17 16 16 15 14 13 14 14
7 2 5 3 3 3 5 8 9 9 7 10 8 3 5 7 5 11 9 7 11 9 5 17 13 20 21 16 7 9 5 5 8 10 9 9 9 12 16 17 18 19 20 19 20 19 17 18 18 17 16 16 16 17 15 10 9 10 12 15 18 22 20 19 19 20 21 23 22 21 20 18 16 17 17 17 17 17 16 16 17 17 16 15 16 15
14 8 1 2 1 6 6 3 2 6 10 12 1 2 5 6 8 14 4 12 13 15 15 13 11 7 13 6 9 5 2 4 7 14 12 14 16 16 16 17 20 21 21 20 20 20 21 21 20 19 16 14 16 17 14 10 8 8 9 11 15 17 17 18 19 18 20 19 20 20 20 19 16 16 15 16 16 17 17 16 17 16 15 15 14 15
5 11 7 4 3 1 5 2 1 6 9 7 5 4 4 3 6 10 10 15 18 16 14 7 10 9 11 11 4 9 11 17 20 21 22 22 22 22 20 20 20 20 21 22 23 23 24 22 22 22 18 14 13 16 14 11 7 7 10 13 16 18 19 19 19 18 18 18 17 19 19 20 19 15 14 13 12 14 17 16 17 19 18 16 15 14
7 10 4 9 13 7 4 5 4 3 9 6 9 3 1 7 10 15 13 16 21 10 15 10 17 11 12 14 14 12 17 21 24 24 22 22 21 21 20 18 18 20 20 20 22 21 24 22 22 21 20 17 19 19 18 15 10 7 10 11 15 17 16 17 17 18 17 17 17 19 19 17 17 18 18 16 17 17 17 17 16 16 18 17 15 14
1 15 23 8 13 2 1 1 9 6 7 4 2 5 9 13 5 3 13 10 11 15 14 4 19 18 16 15 7 18 21 27 27 22 23 23 25 25 18 16 18 19 19 19 20 20 19 18 22 23 21 21 22 23 22 18 12 4 7 10 12 14 16 17 16 16 16 16 17 16 17 18 18 17 19 17 17 16 15 14 14 13 12 17 16 16
4 13 16 7 1 6 9 8 7 2 2 3 6 4 12 7 14 4 6 16 11 12 11 11 17 20 14 17 12 20 27 28 23 19 20 24 27 26 25 25 22 21 18 19 19 19 17 18 19 21 22 23 23 24 22 17 14 5 5 8 12 15 17 16 14 13 13 14 14 14 18 20 19 16 15 15 15 15 16 17 15 15 16 14 15 16
3 7 14 7 6 10 14 2 3 7 6 4 3 5 1 4 7 4 3 12 8 18 14 17 6 19 4 11 16 27 28 19 15 15 18 20 17 15 17 19 21 21 20 19 17 16 15 18 19 20 21 22 23 22 21 20 17 11 7 7 10 12 11 12 14 12 13 14 13 13 13 15 16 16 15 15 14 14 17 19 18 16 15 17 14 15
3 1 14 12 16 15 12 4 1 7 16 17 11 8 5 2 5 9 6 9 9 12 12 12 15 10 11 11 23 20 18 14 13 22 20 16 13 13 13 15 16 18 19 21 18 16 15 17 18 19 19 19 19 19 19 18 18 14 6 7 9 12 13 12 13 12 12 11 12 12 13 15 16 17 16 15 15 15 15 15 17 18 16 14 15 15
1 4 9 16 15 10 12 4 2 11 11 8 6 8 7 10 11 10 14 3 9 7 12 9 17 12 11 6 14 18 15 11 22 19 21 11 10 12 14 13 14 15 18 20 20 16 15 16 18 17 17 17 18 19 21 20 18 16 11 9 9 10 10 11 11 12 12 11 11 13 14 14 13 15 14 16 15 15 15 14 14 16 16 17 16 16
2 3 5 12 11 14 16 15 11 10 3 3 1 3 4 7 8 5 14 14 8 11 15 16 19 21 3 11 12 10 17 22 17 20 14 9 9 12 12 13 13 14 15 18 17 14 12 15 15 15 15 16 17 17 18 18 18 18 15 11 8 8 11 12 13 12 11 11 11 12 12 12 13 14 16 17 15 16 16 15 14 13 16 17 16 15
6 2 1 9 13 17 14 6 5 1 3 8 4 6 7 7 6 10 10 13 15 15 12 8 16 11 3 6 10 18 19 17 21 17 5 9 11 10 12 12 14 14 16 17 16 13 13 12 14 15 15 15 15 16 17 16 16 17 17 13 10 9 13 10 7 6 9 11 12 12 11 12 13 14 15 17 16 16 15 14 14 14 15 15 15 16
4 4 5 10 12 13 9 0 0 1 7 3 10 8 7 11 12 13 13 8 12 8 17 15 22 13 8 11 15 16 22 25 22 15 7 12 10 10 12 12 11 13 15 16 17 17 15 14 15 16 15 15 14 15 15 15 14 15 15 15 13 11 10 8 7 6 7 9 11 11 13 14 13 14 16 17 16 18 16 14 13 12 15 14 14 15
2 3 3 3 11 18 17 16 15 16 11 10 8 15 13 16 22 16 12 10 14 13 17 15 17 16 21 17 17 20 23 21 20 19 13 10 8 9 11 13 12 13 16 17 17 17 16 14 13 14 15 15 15 15 15 14 13 13 15 15 15 13 11 9 7 8 9 8 10 11 14 15 14 16 17 17 16 17 17 15 13 13 11 15 14 14
1 2 4 7 9 14 13 10 12 13 13 13 16 10 16 17 20 14 12 13 14 18 15 19 21 25 24 19 21 23 19 20 22 19 16 16 14 10 9 11 12 14 16 18 16 15 14 14 17 15 15 15 15 15 15 14 13 13 14 17 16 13 12 12 10 9 10 11 12 13 14 14 16 16 15 14 14 13 13 14 14 13 14 12 14 15
2 5 5 6 14 17 14 13 16 13 16 16 15 14 14 21 19 15 13 18 19 17 21 11 21 24 26 23 21 23 21 20 18 16 18 16 14 14 11 11 15 19 18 17 16 16 15 15 15 16 16 16 15 15 15 14 12 10 12 14 15 14 12 11 11 11 11 12 13 14 15 15 15 14 13 12 10 10 12 12 11 12 12 10 13 15
4 8 10 6 17 17 12 10 11 13 13 16 17 14 20 21 16 15 18 20 18 14 20 19 22 27 22 21 24 22 22 18 17 19 20 18 14 12 12 15 20 22 22 19 19 15 14 14 14 16 17 16 15 15 15 14 14 12 12 13 13 12 11 11 12 13 13 12 12 13 13 13 12 12 12 11 11 10 10 10 9 8 9 10 10 10
1 7 10 6 14 16 13 8 11 15 15 14 13 17 22 22 19 19 20 19 17 18 23 22 25 26 21 19 19 20 18 18 20 20 18 16 16 14 12 17 22 23 23 22 20 18 13 13 14 16 17 17 16 16 15 15 14 14 13 14 14 12 11 11 13 14 14 13 13 12 11 11 10 11 10 12 13 12 10 9 9 10 11 11 10 10
5 7 9 9 11 16 14 9 10 13 13 16 13 19 25 22 17 15 14 17 20 18 21 24 27 24 17 16 15 18 20 17 19 23 21 18 15 13 16 23 24 24 22 22 21 17 15 13 15 16 17 17 17 16 15 14 14 14 14 13 13 12 12 11 13 14 15 16 14 12 11 11 11 10 11 13 13 11 10 11 10 11 11 11 11 12
3 5 5 6 8 14 10 13 14 15 15 17 19 20 19 15 13 11 16 18 20 24 25 23 18 14 15 19 21 21 23 22 24 21 20 16 11 15 23 26 25 24 23 22 19 16 16 16 16 18 18 18 17 16 14 15 15 14 15 15 13 12 11 12 13 14 14 16 15 13 12 11 11 11 11 11 13 13 12 11 11 12 12 12 12 11
3 3 3 4 9 11 14 15 18 17 17 13 10 16 15 12 16 19 19 21 20 23 20 17 15 14 19 20 23 22 23 26 24 18 14 13 17 22 23 24 23 23 21 20 19 17 17 17 18 19 20 17 16 16 15 14 13 15 16 16 14 11 11 13 14 14 14 14 15 14 12 11 12 13 12 13 13 11 11 13 13 13 13 15 13 10
1 4 4 2 6 10 14 16 13 12 12 13 8 12 13 21 22 19 19 19 22 19 15 18 19 20 19 20 20 23 22 23 24 20 13 17 20 22 22 22 21 21 19 17 18 18 17 18 18 18 18 18 18 16 15 12 12 14 15 14 13 10 11 12 15 15 14 12 14 13 12 13 14 14 14 13 12 12 13 14 16 15 13 11 11 14
6 3 5 2 2 7 10 11 9 9 12 7 16 20 20 22 22 22 20 20 22 24 20 22 22 21 22 21 19 21 22 25 28 25 22 23 22 19 21 23 21 19 20 18 18 16 17 19 20 21 21 19 17 17 15 16 13 15 16 14 13 11 10 11 13 14 15 12 13 12 12 13 14 14 13 13 14 14 14 16 14 14 13 14 16 15
3 7 4 2 4 2 7 4 8 14 11 17 21 22 22 16 13 16 19 20 23 23 21 20 22 23 24 22 21 19 19 29 33 26 17 18 18 18 19 19 20 20 19 19 18 20 17 18 21 22 22 18 16 17 16 17 16 15 18 15 12 11 9 10 11 13 14 12 11 11 11 12 12 13 13 13 13 14 15 14 15 16 14 13 12 11
9 1 2 4 4 10 3 7 14 16 17 18 17 12 9 15 16 14 20 20 21 18 19 22 25 23 21 21 21 20 25 27 26 29 6 13 14 16 17 19 20 20 22 21 18 19 17 17 20 21 19 18 16 17 17 16 17 18 18 16 13 11 10 9 11 12 12 11 11 11 10 10 11 12 13 15 15 16 15 15 14 13 11 12 13 14
6 6 5 3 4 5 10 12 10 9 11 15 14 20 15 14 14 14 14 21 21 17 15 16 20 21 21 23 26 27 27 22 29 31 12 6 14 16 15 17 18 19 18 20 19 18 17 16 17 18 17 19 20 17 17 16 18 18 18 17 14 12 11 9 10 11 11 11 8 11 10 10 12 12 13 14 17 18 16 15 12 13 12 15 15 14
2 2 5 8 4 2 3 7 10 11 13 13 21 22 19 16 15 12 10 20 19 15 11 14 23 25 24 25 25 26 18 20 26 28 22 12 14 15 18 19 20 19 22 26 25 25 20 16 17 20 19 23 22 19 14 17 18 18 18 16 15 13 11 10 9 10 11 12 10 9 10 10 12 13 14 16 17 17 17 17 16 14 12 12 12 13
2 2 1 1 4 4 4 6 12 3 8 8 15 17 17 16 14 8 15 16 16 24 23 22 26 28 26 25 25 21 20 18 22 26 27 28 25 27 23 25 27 29 29 25 24 20 24 22 23 21 24 22 20 15 15 18 16 17 17 17 16 15 12 10 9 9 9 10 10 9 9 10 13 14 15 16 15 15 17 15 13 14 15 13 12 12
2 4 1 9 7 10 11 11 10 9 10 14 17 21 15 10 12 11 15 19 20 23 27 25 28 27 24 27 20 19 21 17 22 27 35 35 35 37 31 23 23 24 26 28 27 26 21 22 17 19 20 15 18 17 18 15 14 15 16 19 18 17 13 9 9 9 9 9 9 9 9 9 12 15 15 15 16 15 14 13 15 15 14 14 11 11
5 3 4 3 7 9 7 11 13 13 15 19 7 7 12 10 11 14 15 18 24 25 26 28 26 24 22 22 21 20 24 28 34 26 33 36 32 31 33 32 29 29 30 24 28 29 27 27 26 26 22 22 18 17 14 11 14 17 19 19 20 17 11 9 9 9 9 9 9 9 9 10 11 13 13 13 13 13 14 14 14 15 17 14 14 16
5 0 5 8 6 5 8 10 10 13 4 4 11 15 8 9 15 18 19 22 23 22 23 25 24 25 19 21 27 28 30 31 30 30 28 28 27 26 26 29 27 28 30 28 28 20 19 21 22 21 21 17 13 12 11 15 19 22 21 21 20 13 10 9 10 9 9 9 9 9 10 11 13 13 11 12 14 16 15 13 14 14 14 15 15 16
5 3 5 6 7 11 9 8 6 9 15 11 11 11 14 13 18 18 17 20 20 21 19 17 22 22 22 21 25 28 31 31 30 30 30 30 28 25 24 24 23 26 26 22 19 18 19 17 21 21 23 19 20 19 19 18 19 19 20 20 15 12 9 10 10 9 9 9 9 9 9 11 13 13 13 14 14 14 15 15 15 15 15 16 15 14
8 5 5 7 6 7 8 9 13 18 15 13 11 12 16 20 19 17 16 16 20 18 24 18 24 28 27 28 30 31 28 28 30 32 29 32 33 33 31 31 27 27 28 28 27 21 20 20 22 21 24 20 21 17 16 14 17 19 20 18 14 11 10 10 10 9 9 9 9 9 9 10 11 13 13 13 15 15 15 16 16 15 14 14 15 15
5 8 7 8 14 16 15 17 19 18 18 16 13 14 17 18 17 14 17 17 17 15 14 14 22 27 30 28 28 30 30 30 34 37 35 35 33 32 30 30 29 26 26 27 26 23 19 21 20 23 23 24 22 20 16 16 15 18 19 16 12 11 10 10 10 10 11 11 9 10 10 11 12 14 15 16 14 16 15 16 16 15 14 14 14 14
8 5 6 11 9 8 10 9 15 20 19 16 18 15 13 15 17 13 16 14 14 19 26 25 25 25 25 26 26 30 34 32 34 35 34 31 32 32 31 30 29 27 26 27 25 23 22 18 20 23 23 23 19 16 14 14 13 14 15 12 11 10 9 10 11 13 12 11 10 9 10 12 11 11 13 15 14 14 14 15 16 17 17 17 17 16
6 1 5 10 12 11 18 16 17 20 18 11 14 13 17 20 24 22 7 9 16 22 21 21 22 25 25 25 28 30 34 32 30 32 32 32 31 30 30 29 29 27 25 24 25 22 20 19 19 21 22 21 20 16 15 13 13 11 10 10 10 9 10 12 13 13 13 12 9 8 9 11 15 15 12 14 14 14 14 14 16 16 18 18 18 17
7 3 7 2 8 15 17 19 16 14 22 17 8 10 10 11 17 23 22 22 25 25 24 22 16 19 25 30 33 29 29 32 28 28 30 30 31 29 28 28 27 26 25 23 23 22 18 17 19 20 21 22 19 15 12 11 10 10 10 9 9 10 12 14 14 12 12 12 9 8 9 11 12 13 13 13 13 14 15 16 15 15 14 13 15 17
5 12 9 6 11 13 13 13 7 11 16 23 26 21 15 12 9 13 21 24 22 24 26 31 33 21 13 17 25 29 29 28 30 30 32 30 29 33 33 30 23 23 23 20 17 19 20 19 18 20 21 20 17 13 12 11 10 9 9 9 10 11 12 13 11 10 10 9 8 8 9 10 11 12 12 13 13 13 11 13 17 15 15 14 17 23
8 10 5 9 8 13 16 10 5 3 13 18 18 18 20 17 16 18 23 26 26 24 25 27 33 39 33 24 18 24 29 28 31 31 30 28 30 30 28 27 21 19 19 18 18 18 16 18 18 17 14 11 11 12 12 13 12 12 12 10 10 11 11 11 10 9 8 8 8 9 10 10 11 12 11 12 13 13 13 10 11 15 16 12 16 18
Wind_Direction
252 44 326 292 269 267 275 248 238 263 165 272 291 280 276 286 289 289 286 283 147 304 278 284 283 288 291 290 289 297 306 304 294 291 290 277 271 273 273 269 271 273 268 278 290 275 239 220 212 211 205 206 205 206 203 202 202 197 196 193 196 191 184 182 184 185 180 179 182 185 184 183 184 187 178 176 176 179 180 175 177 177 177 171 164 166
62 14 284 243 240 244 258 274 275 330 163 228 272 283 287 290 279 281 293 302 295 176 285 291 298 289 290 289 290 298 301 299 301 299 296 293 281 273 272 277 277 275 288 298 298 286 263 234 223 209 202 192 195 209 201 203 202 199 198 198 197 187 187 187 188 187 184 182 187 183 185 179 179 181 182 182 178 180 179 175 175 178 179 176 170 169
3 294 264 252 241 198 252 274 256 198 216 189 214 268 311 279 255 285 287 271 285 162 274 302 327 294 291 287 290 294 290 290 290 283 282 288 288 288 285 279 283 296 297 304 292 291 287 251 237 217 214 212 210 203 201 206 203 204 203 203 196 194 191 190 189 185 191 183 181 182 182 180 181 185 184 178 175 176 176 178 177 177 177 177 177 172
330 270 243 240 113 357 302 273 307 306 148 177 267 307 272 274 325 299 295 311 314 225 281 297 294 290 284 285 288 285 285 288 291 290 288 274 266 270 279 291 303 301 301 304 310 321 355 335 289 262 241 228 221 216 214 209 209 206 206 201 195 195 194 195 192 192 191 186 180 177 175 180 176 181 182 178 172 177 177 177 180 179 175 179 182 180
254 260 299 91 178 190 244 289 331 312 302 201 199 243 270 283 267 244 292 321 315 298 285 282 245 269 274 284 285 285 292 296 293 296 290 269 226 276 295 303 278 273 295 309 311 352 352 335 299 263 255 270 238 226 219 213 210 207 206 202 197 195 195 195 192 189 186 179 177 174 171 173 172 169 177 174 179 180 181 177 176 181 181 182 179 181
278 267 152 86 87 73 357 328 287 286 298 299 229 213 235 256 277 290 298 337 335 300 286 15 296 213 264 271 280 288 295 296 297 302 300 304 312 277 285 284 300 330 341 312 339 354 351 348 339 316 296 267 254 248 235 223 217 211 209 205 203 201 198 193 191 189 185 184 179 173 170 175 173 178 180 188 184 181 181 183 178 175 179 181 182 182
253 322 55 6 317 303 309 244 275 94 269 344 275 172 218 235 262 281 287 353 291 292 293 309 285 279 262 285 280 287 285 290 292 294 295 302 312 339 348 351 0 359 356 2 3 354 356 348 342 326 293 257 251 251 245 238 231 224 218 211 205 202 198 192 191 187 188 190 189 184 182 183 182 182 192 190 184 177 177 170 175 177 180 183 180 184
10 309 338 5 343 338 355 316 283 132 196 260 246 176 297 292 280 280 281 246 258 258 280 282 241 272 282 263 272 275 282 282 285 288 293 301 318 0 33 24 19 11 7 2 357 349 345 341 334 315 299 272 245 246 254 254 246 233 224 213 211 207 202 197 189 187 189 190 192 190 187 184 185 186 188 186 185 181 171 172 176 175 178 182 185 183
346 306 305 324 16 333 271 243 248 166 183 249 277 302 286 277 284 282 271 277 261 290 284 276 313 296 230 273 267 276 282 278 285 287 292 309 7 18 14 12 8 4 0 357 348 344 334 325 321 319 311 294 266 254 244 238 233 230 228 222 216 211 204 201 194 189 190 190 191 193 188 187 189 187 185 180 177 178 174 175 175 174 176 180 184 185
293 220 258 52 321 280 256 268 187 162 353 277 291 307 265 283 249 240 272 272 272 276 269 275 273 269 272 271 280 274 259 280 283 288 308 22 8 5 359 353 353 353 349 344 340 333 329 318 313 314 312 309 291 263 243 244 240 234 229 227 220 217 210 203 198 194 193 191 188 192 192 189 188 185 181 174 177 179 175 179 177 175 176 179 182 185
265 299 160 191 227 217 349 296 194 206 242 305 313 303 324 325 284 265 255 244 32 230 259 275 277 262 282 260 272 260 274 282 326 316 11 353 356 348 350 342 341 338 337 335 331 328 325 320 309 311 316 315 316 286 247 242 239 232 226 223 219 218 212 204 200 194 195 196 195 195 190 187 186 183 177 175 177 178 176 182 180 179 177 177 181 180
321 313 297 256 31 46 61 341 219 207 231 336 356 339 323 285 281 331 274 87 205 261 263 282 270 232 275 285 254 268 315 321 314 350 339 350 338 338 334 338 333 334 333 333 335 334 334 333 331 328 325 328 325 324 261 239 239 231 224 220 222 218 214 212 208 199 196 195 199 200 196 192 187 180 180 180 181 180 181 180 181 181 177 178 180 180
316 218 234 72 305 77 2 2 331 341 349 20 333 333 346 303 315 323 342 307 239 277 288 287 322 308 237 273 301 303 292 322 17 347 350 319 329 330 334 332 334 337 340 339 341 339 339 336 332 328 325 327 329 326 310 257 240 235 229 223 223 221 214 211 209 203 196 194 196 197 197 196 192 189 184 182 182 182 181 182 179 179 184 179 181 183
270 256 15 316 64 14 30 15 322 333 336 334 340 344 10 316 295 279 283 261 274 260 290 305 310 273 281 287 289 290 25 22 357 340 331 337 325 333 335 336 340 342 342 342 340 339 337 332 328 322 319 322 325 324 312 283 245 230 225 221 220 224 215 214 212 211 203 198 194 195 196 194 190 191 187 188 185 184 184 183 183 181 181 183 185 181
326 349 290 359 9 340 18 66 319 249 315 302 251 74 333 301 309 303 307 297 284 292 292 271 286 254 300 286 312 349 67 331 341 342 338 337 335 337 342 344 345 343 344 345 343 340 335 330 327 323 319 319 324 319 309 290 247 220 227 233 233 235 227 218 216 213 212 206 196 195 197 195 192 187 187 191 188 183 185 186 182 184 182 182 185 183
233 252 259 130 146 82 49 331 196 342 321 287 149 280 331 325 349 272 295 289 285 289 289 263 239 298 277 306 307 12 346 349 353 345 347 335 338 342 347 349 348 349 350 349 345 338 334 333 332 327 320 319 322 315 307 293 266 215 222 226 229 231 229 221 215 214 214 211 205 198 193 196 195 189 187 187 187 187 185 188 187 184 184 183 180 181
344 282 162 335 342 95 78 9 348 27 321 303 339 315 289 307 286 282 271 252 278 295 271 293 284 273 297 288 290 14 345 342 344 340 334 334 335 343 341 348 355 354 350 346 341 340 335 337 334 333 328 330 327 321 312 304 296 238 228 228 231 233 232 228 221 218 213 212 210 204 197 192 191 194 191 186 186 186 186 186 188 188 183 178 179 178
345 291 296 327 322 144 139 1 312 268 232 349 357 292 301 250 250 323 306 305 281 279 285 270 287 300 307 298 77 1 347 336 337 333 332 334 338 335 346 357 355 349 345 340 339 338 335 342 343 344 342 340 333 323 315 307 308 246 224 226 233 236 236 233 226 219 215 213 214 210 204 199 195 192 195 193 188 184 182 187 184 182 183 182 178 177
31 301 295 319 342 298 338 343 320 36 98 79 279 306 335 348 314 285 269 294 317 274 280 260 272 270 261 287 15 347 335 329 323 332 339 340 338 338 344 346 348 346 344 343 339 336 340 348 346 344 342 339 338 332 324 309 304 274 220 223 226 230 230 231 228 224 220 215 212 210 205 199 199 197 193 192 190 187 185 185 185 183 184 180 179 178
348 283 294 307 24 323 324 26 350 289 306 304 293 304 208 250 252 319 283 295 288 289 303 290 306 283 287 306 350 330 320 307 317 337 334 332 345 351 341 342 340 339 336 334 334 333 341 344 341 341 341 341 339 337 331 321 309 283 248 232 232 237 235 231 227 221 222 218 218 219 216 209 201 198 196 192 184 189 190 187 184 185 183 184 177 179
283 188 283 308 327 341 314 72 50 358 330 325 336 324 348 287 327 320 286 292 299 300 287 313 300 281 288 339 314 305 298 311 338 331 335 345 351 343 341 331 331 330 331 328 332 330 340 339 338 337 339 338 338 336 336 334 320 297 269 253 246 238 233 227 227 221 219 216 218 219 216 212 204 197 196 195 191 190 192 192 189 184 186 177 182 177
24 313 277 305 310 298 280 90 78 314 285 280 318 313 324 332 339 341 296 247 307 322 293 305 279 267 295 319 290 296 299 325 334 338 325 344 332 332 327 323 322 327 323 326 326 331 335 337 333 333 334 339 340 339 336 335 335 318 289 258 250 245 241 231 226 221 217 214 217 214 213 213 211 205 197 196 193 191 191 191 190 188 176 183 184 178
192 213 246 280 280 281 292 307 301 271 281 251 251 273 6 340 333 323 303 310 296 263 282 276 285 285 348 288 286 304 324 323 324 315 315 312 316 317 314 312 316 318 318 319 321 320 326 329 327 325 329 335 336 333 332 334 339 334 314 285 262 241 240 229 223 217 207 207 210 216 215 212 212 209 203 198 195 194 192 191 187 184 184 181 178 184
120 230 48 270 291 284 287 269 290 340 69 340 340 335 344 319 304 283 271 288 288 293 288 280 255 282 359 308 309 315 313 318 310 308 281 301 308 308 305 310 314 315 319 318 316 314 315 323 322 325 329 334 335 335 332 333 336 339 332 304 278 254 247 243 238 226 214 208 208 206 207 211 212 212 210 204 201 197 191 187 186 183 185 183 177 179
11 312 43 324 312 303 311 21 145 294 359 345 323 324 329 316 306 296 297 294 291 288 298 296 289 316 295 296 307 319 315 307 305 306 276 296 299 300 304 308 308 311 314 315 314 312 312 318 325 325 324 327 330 330 328 328 334 338 339 328 298 273 260 243 220 208 216 215 211 204 205 208 207 210 211 210 204 202 196 189 184 183 182 180 180 179
260 272 51 349 305 305 319 325 327 328 339 322 307 322 330 323 310 316 305 305 282 291 288 283 287 287 290 304 319 309 299 301 306 305 300 283 285 290 302 304 305 310 312 313 312 308 309 313 318 320 322 324 327 327 325 325 330 336 339 334 321 293 274 253 227 209 203 207 211 211 208 205 204 209 210 210 207 203 199 196 187 183 186 181 179 178
233 251 201 206 226 261 272 284 296 309 311 300 302 309 312 296 285 283 287 284 281 290 281 279 282 294 301 315 307 298 300 304 306 302 300 303 301 296 288 292 300 309 312 311 309 302 299 308 314 318 318 319 320 324 322 324 325 334 337 333 327 314 290 274 254 230 218 207 205 209 211 206 205 205 206 206 209 204 198 196 193 184 188 186 178 178
301 285 234 223 247 260 272 283 289 296 293 291 297 303 289 283 288 292 286 282 286 293 280 279 298 303 301 308 300 301 302 299 298 297 298 297 297 300 296 293 304 311 310 308 305 300 298 302 308 314 317 316 318 318 322 318 317 322 331 327 322 315 308 296 279 260 235 222 216 211 209 208 207 202 201 200 201 206 206 198 190 189 187 179 183 184
280 278 283 279 275 273 273 283 290 294 284 287 292 294 287 285 291 289 281 279 286 282 289 308 305 292 301 298 298 296 295 297 298 296 294 293 290 291 296 307 313 312 311 309 305 296 293 298 305 311 313 314 313 317 320 320 316 318 321 321 314 309 311 314 299 273 254 237 226 222 215 209 204 197 193 188 191 199 203 199 189 180 179 185 185 182
334 257 274 253 278 285 293 295 287 284 285 287 294 293 285 288 289 286 284 286 287 289 290 296 291 289 294 294 295 293 293 297 298 295 293 289 287 288 296 308 311 310 308 307 304 298 290 293 301 307 311 311 312 314 318 318 315 314 316 316 314 309 311 318 308 287 262 242 228 222 214 208 199 191 186 186 189 195 194 190 181 178 180 182 180 178
229 269 303 310 297 291 302 298 284 283 292 294 297 291 290 290 294 291 298 304 301 293 292 294 292 297 294 289 291 295 297 295 294 295 293 288 287 289 301 309 308 306 304 301 301 295 290 291 299 305 309 309 309 310 313 313 311 309 306 306 305 305 309 313 305 294 269 248 233 220 208 199 193 181 183 188 190 183 180 185 180 179 179 178 177 176
295 280 314 293 297 293 301 311 305 304 301 301 296 288 288 305 309 310 308 305 302 294 294 293 294 291 295 301 304 301 299 298 296 295 297 294 289 299 305 305 303 302 300 298 296 292 290 294 301 307 308 307 305 305 308 309 309 306 303 304 304 305 308 308 302 295 275 250 235 220 204 197 188 184 187 181 184 183 181 175 175 178 179 177 178 176
194 267 297 292 283 280 304 311 311 316 312 301 292 293 303 304 295 299 294 293 291 295 303 303 290 292 299 302 299 298 298 295 293 294 298 294 296 300 298 296 296 295 293 292 292 289 289 294 301 303 305 302 301 302 300 301 302 301 302 303 300 302 306 306 304 300 282 250 234 219 203 193 186 188 183 184 184 177 167 172 178 178 177 183 180 166
205 234 253 266 275 301 305 303 315 313 296 287 293 293 309 300 301 301 295 290 289 289 286 286 288 294 293 292 291 294 294 291 291 292 286 291 295 293 291 289 287 287 285 282 283 284 285 292 296 298 298 297 296 294 294 293 290 293 296 296 293 295 301 307 307 305 292 254 230 216 202 194 191 188 186 181 176 175 177 177 182 182 178 169 167 180
267 266 263 232 263 287 289 294 303 261 270 310 305 298 296 291 293 284 279 283 287 289 291 291 291 292 291 291 289 285 284 285 282 281 287 287 286 281 281 283 282 282 280 280 280 279 284 291 295 296 298 297 294 295 297 296 297 299 299 296 289 288 296 301 303 307 303 267 234 215 205 198 193 191 184 178 177 179 185 185 181 173 175 177 181 180
216 257 264 288 260 294 291 307 288 266 287 295 288 290 288 286 280 297 293 292 295 294 295 290 289 290 291 291 287 285 286 288 286 277 270 270 268 271 273 275 279 278 278 278 278 282 284 289 292 295 294 292 291 292 292 295 300 301 298 293 280 284 288 295 303 307 308 280 244 223 210 200 196 190 180 176 177 183 188 186 181 181 179 177 177 178
199 267 266 274 256 275 242 258 264 294 299 287 293 290 300 306 311 313 305 300 288 284 290 289 291 290 292 291 292 291 294 293 287 285 236 245 255 259 261 267 275 277 278 278 276 278 279 282 285 285 284 284 286 288 290 293 298 299 295 289 277 277 286 296 302 307 309 290 247 234 215 202 198 193 185 178 177 184 186 186 187 183 176 178 179 177
183 171 235 267 261 252 294 293 287 291 285 289 275 281 290 291 294 296 298 292 284 281 274 278 281 287 291 294 295 296 297 294 290 291 297 264 268 270 268 272 274 277 280 282 284 281 279 278 277 278 280 284 283 281 285 290 293 294 289 282 278 277 286 290 296 302 304 297 255 234 219 203 197 195 190 184 183 183 184 184 185 183 179 182 180 184
353 216 187 198 245 3 304 273 275 279 267 274 292 294 298 295 298 311 297 282 288 291 280 281 291 293 294 295 295 298 294 290 287 289 302 309 300 304 309 306 301 297 296 296 293 293 288 286 289 289 286 283 280 278 278 285 288 286 280 276 275 273 274 281 287 295 299 296 280 239 223 202 195 194 190 191 190 183 180 181 183 182 178 188 186 185
112 230 102 2 277 232 237 262 280 210 271 260 269 286 295 304 309 316 292 286 306 310 307 306 300 301 303 298 297 291 284 284 288 294 313 318 318 310 307 308 308 305 299 294 295 296 296 292 287 282 280 274 273 283 284 284 276 274 275 275 272 266 262 264 273 276 281 282 278 259 224 207 197 194 192 192 188 187 185 181 174 174 180 185 183 178
357 331 323 265 260 271 275 274 278 277 270 276 283 288 295 306 304 301 294 297 307 307 307 305 301 303 305 303 307 307 301 305 308 313 315 313 313 310 310 309 301 299 300 302 297 297 297 296 288 279 275 277 286 286 278 269 269 275 279 276 268 260 254 251 257 265 269 266 267 261 230 210 203 198 195 190 187 187 183 179 181 176 175 176 177 178
314 286 270 262 273 284 259 259 265 270 274 282 265 288 312 326 310 294 283 290 301 304 304 306 305 310 326 337 332 309 295 296 295 291 296 298 297 299 303 307 308 302 296 292 297 303 301 295 292 288 281 278 273 267 264 269 279 282 281 273 261 256 250 244 247 254 260 253 252 248 231 214 206 201 195 189 183 181 185 187 178 176 177 176 175 179
260 220 247 264 259 253 270 275 286 288 262 268 326 318 316 315 288 289 301 302 304 307 313 318 324 328 343 320 310 303 300 299 302 301 300 301 305 309 312 308 308 305 303 306 304 298 295 290 292 293 291 285 273 274 275 278 278 278 274 263 257 255 244 239 244 249 251 250 244 236 225 217 203 197 192 188 187 183 183 177 176 178 176 178 180 181
235 162 268 267 275 289 274 266 246 242 283 315 333 304 302 278 287 299 305 309 316 324 332 335 319 321 322 317 308 304 302 303 306 304 308 305 305 306 305 302 300 299 296 293 293 297 300 296 297 295 290 286 281 274 270 263 263 263 262 258 256 251 239 240 244 245 246 246 241 231 220 213 205 196 190 186 181 183 180 180 181 177 180 180 180 182
251 216 186 262 238 236 251 248 261 275 284 293 296 280 282 289 295 304 315 321 324 321 329 323 317 316 315 315 309 303 301 303 303 304 307 305 307 308 309 304 302 299 296 296 298 298 294 292 295 295 291 289 284 274 267 258 257 260 259 259 255 247 239 241 245 244 243 242 236 226 219 207 201 193 187 184 180 181 184 181 176 179 185 180 184 185
221 229 236 250 256 258 263 268 276 282 284 287 287 290 295 300 305 327 336 331 320 317 318 306 304 306 312 314 313 307 305 308 308 307 307 305 304 302 301 299 299 297 293 294 294 292 295 295 292 293 288 286 280 274 267 263 256 256 257 257 254 246 242 241 248 253 249 245 234 224 210 205 199 190 185 182 184 185 182 179 180 183 180 184 187 187
256 227 231 254 275 305 275 266 276 279 286 300 300 302 302 309 316 343 328 314 314 317 314 314 313 309 309 308 304 300 302 306 305 304 305 305 303 301 301 299 296 293 292 292 292 296 296 295 294 293 289 282 278 274 269 261 256 251 254 253 249 248 245 246 249 256 256 246 239 222 207 200 195 190 186 184 184 186 185 184 183 184 184 186 186 187
275 229 294 259 276 265 271 283 279 283 292 294 301 314 319 323 325 329 325 322 314 307 307 303 309 310 315 309 306 304 302 304 306 305 305 304 302 301 299 296 295 298 298 294 291 291 291 290 290 290 291 292 290 285 277 269 261 253 251 250 248 247 248 254 254 252 253 246 233 218 199 199 190 185 185 188 185 186 188 188 188 188 189 187 185 183
267 327 246 243 270 270 276 276 288 323 304 293 276 289 315 355 325 319 328 329 324 316 315 313 311 311 314 311 310 309 309 307 305 301 296 295 298 299 297 294 293 291 290 295 295 293 287 286 288 287 287 284 282 281 277 273 268 263 258 256 256 255 256 255 253 248 247 246 231 213 194 191 186 188 186 184 190 193 190 186 189 195 196 199 187 184
245 247 268 284 274 273 277 293 39 331 308 311 314 321 347 341 317 311 319 317 323 324 326 325 322 320 311 311 313 311 308 306 305 307 306 306 301 297 297 295 291 292 291 288 289 291 289 281 273 276 278 279 287 291 289 286 284 281 280 275 268 259 256 257 255 248 241 235 223 205 188 185 181 184 184 183 186 189 196 202 194 191 189 193 204 198
226 250 231 245 249 274 276 302 71 274 289 287 295 327 335 336 339 331 325 322 324 331 334 331 326 323 326 327 318 307 308 312 315 315 314 314 310 304 293 291 289 291 292 295 297 296 290 285 283 284 292 314 329 322 315 308 303 301 297 290 284 278 271 264 258 249 238 219 210 195 185 180 178 182 184 183 183 185 187 183 199 206 208 206 197 199